Regional Weather Roundup
Issued by NWS

Home | Current Version | Previous Version | Graphics & Text | Print | Product List | Glossary On
Versions: 1 2 3 4 5 6 7 8 9 10 11 12 13 14 15 16 17 18 19 20 21 22 23 24 25 26 27 28 29 30 31 32 33 34 35 36 37 38 39 40 41 42 43 44 45 46 47 48 49 50
000
ASUS43 KFSD 061510
RWRSD

WEATHER ROUNDUP FOR SOUTH DAKOTA
NATIONAL WEATHER SERVICE SIOUX FALLS SD
1000 AM CDT MON JUL 06 2015

NOTE: "FAIR" INDICATES FEW OR NO CLOUDS BELOW 12,000 FEET WITH NO
SIGNIFICANT WEATHER AND/OR OBSTRUCTIONS TO VISIBILITY.


SDZ001>005-009-010-012>017-061600-
NORTHWEST AND NORTH CENTRAL SOUTH DAKOTA

CITY           SKY/WX    TMP DP  RH WIND       PRES   REMARKS
BUFFALO          N/A     62  54  74 N12       30.15R
FAITH            N/A     64  54  69 N12       30.17R
MOBRIDGE       SUNNY     68  60  75 N13       30.10S HAZE
$$

SDZ012>016-024>037-041>051-057-063-072>074-061600-
SOUTHWEST AND SOUTH CENTRAL SOUTH DAKOTA

CITY           SKY/WX    TMP DP  RH WIND       PRES   REMARKS
RAPID CTY ARPT CLOUDY    60  53  77 NW14      30.23R
PIERRE         PTSUNNY   66  61  84 N12       30.09R HAZE
CUSTER         CLOUDY    53  48  83 NE3       30.29R HAZE
ELLSWORTH AFB  CLOUDY    59  55  84 NW13      30.23R
PHILIP         CLOUDY    67  58  72 N12       30.16R HAZE
PINE RIDGE     CLOUDY    61  56  83 N12       30.21R HAZE
SPEARFISH      CLOUDY    57  52  82 NW8       30.28R
WINNER         CLOUDY    68  61  78 NE15      30.08R HAZE
$$

SDZ004>011-016>023-039-040-061600-
NORTHEAST SOUTH DAKOTA

CITY           SKY/WX    TMP DP  RH WIND       PRES   REMARKS
ABERDEEN       CLOUDY    65  59  81 N14       30.05R HAZE
WATERTOWN      CLOUDY    64  59  83 N17       29.99R HAZE
BROOKINGS      CLOUDY    64  61  88 N14G20    29.99R
SISSETON         N/A     63  58  83 N18       29.99R
$$

SDZ017-020-022-023-036>040-048>070-061600-
SOUTHEAST SOUTH DAKOTA

CITY           SKY/WX    TMP DP  RH WIND       PRES   REMARKS
SIOUX FALLS    CLOUDY    69  67  93 N16G23    29.94R
HURON          CLOUDY    67  62  84 N15       30.00F HAZE
CHAMBERLAIN    CLOUDY    65  61  88 N7        30.06S FOG
MITCHELL       CLOUDY    65  58  78 NW13      30.00R HAZE
YANKTON        CLOUDY    66  63  88 NW17G23   29.93R
$$

ABBREVIATIONS USED IN REMARKS
   TC - TEMPERATURE IN CELSIUS
  WCI - WIND CHILL INDEX
   HX - HEAT INDEX
  VSB - VISIBILITY




USA.gov is the U.S. government's official web portal to all federal, state and local government web resources and services.